contact:dominique.lefevre@mio.osupytheas.fr, maurice.libes@osupytheas.fr, didier.mallarino@osupytheas.fr
Project:EMSO http://www.emso-fr.org/EMSO-France
Depth: 2436.0 m
Title:EMSO Ligure Ouest : Data MII capteur AQUADOPP
Date,Latitude,Longitude,X_East,Y_North,Z_Up,Amplitude_X,Amplitude_Y,Amplitude_Z,Batterie,SoundSpeed,Heading,Pitch,Roll,Pressure,TIS,Speed,Direction
, degrees North, degrees East, m.s-1, m.s-1,m.s-1, 1, 1, 1, Volt, m.s-1, degree, degree, degree, dbar, degree_C, m.s-1, degree
2021-02-07T00:04:03,42.805,6.029,-0.041,0.012,0.02,114.0,113.0,108.0,13.4,1505.3,325.8,-0.7,1.8,2470.457,13.31,0.042,286.3
2021-02-07T00:07:03,42.805,6.029,-0.025,0.002,0.003,112.0,115.0,107.0,13.3,1505.3,325.8,-0.7,1.9,2470.432,13.32,0.025,274.6
2021-02-07T00:10:03,42.805,6.029,-0.024,0.011,-0.018,113.0,115.0,108.0,13.4,1505.3,324.3,-0.7,1.8,2470.461,13.32,0.026,294.6
2021-02-07T00:13:03,42.805,6.029,-0.019,0.008,-0.001,112.0,115.0,109.0,13.4,1505.3,327.8,-0.7,1.9,2470.489,13.33,0.02,292.8
2021-02-07T00:16:03,42.805,6.029,-0.016,-0.012,-0.024,115.0,115.0,108.0,13.4,1505.3,322.8,-0.7,1.8,2470.458,13.33,0.02,233.1
2021-02-07T00:19:03,42.805,6.029,-0.02,0.001,0.005,113.0,115.0,109.0,13.3,1505.3,326.0,-0.7,1.8,2470.447,13.33,0.02,272.9
2021-02-07T00:22:03,42.805,6.029,-0.012,0.017,0.007,113.0,115.0,109.0,13.4,1505.3,326.4,-0.7,1.8,2470.468,13.33,0.02,324.8
2021-02-07T00:25:03,42.805,6.029,-0.043,0.022,0.021,113.0,115.0,108.0,13.4,1505.3,326.0,-0.7,1.8,2470.468,13.33,0.048,297.1
2021-02-07T00:28:03,42.805,6.029,-0.047,0.003,0.0,114.0,115.0,108.0,13.4,1505.3,326.3,-0.7,1.8,2470.43,13.33,0.047,273.6
2021-02-07T00:31:03,42.805,6.029,-0.05,-0.002,-0.027,112.0,115.0,108.0,13.4,1505.3,322.8,-0.7,1.9,2470.458,13.33,0.05,267.7
2021-02-07T00:34:03,42.805,6.029,-0.04,0.005,0.013,112.0,115.0,108.0,13.4,1505.3,327.1,-0.7,1.8,2470.432,13.33,0.04,277.1
2021-02-07T00:37:03,42.805,6.029,-0.039,0.031,0.0,112.0,115.0,108.0,13.3,1505.3,324.5,-0.7,1.9,2470.43,13.33,0.049,308.5
2021-02-07T00:40:03,42.805,6.029,-0.033,0.015,-0.019,111.0,117.0,107.0,13.3,1505.3,323.9,-0.7,1.8,2470.465,13.33,0.036,294.4
2021-02-07T00:43:03,42.805,6.029,-0.051,0.026,-0.025,112.0,115.0,107.0,13.4,1505.3,326.1,-0.7,1.8,2470.46,13.33,0.057,297.0
2021-02-07T00:46:03,42.805,6.029,-0.019,0.012,-0.017,112.0,114.0,107.0,13.4,1505.3,325.2,-0.7,1.8,2470.436,13.33,0.022,302.3
2021-02-07T00:49:03,42.805,6.029,-0.041,0.025,0.014,111.0,116.0,105.0,13.3,1505.3,324.0,-0.7,1.8,2470.432,13.33,0.048,301.4
2021-02-07T00:52:03,42.805,6.029,-0.032,0.031,-0.018,109.0,115.0,106.0,13.4,1505.3,327.3,-0.7,1.8,2470.441,13.33,0.044,314.1
2021-02-07T00:55:03,42.805,6.029,-0.024,0.011,0.013,110.0,114.0,106.0,13.4,1505.3,325.2,-0.7,1.8,2470.452,13.33,0.026,294.6
2021-02-07T00:58:03,42.805,6.029,-0.051,0.013,-0.022,109.0,112.0,106.0,13.4,1505.3,323.6,-0.7,1.8,2470.439,13.33,0.052,284.3
2021-02-07T01:04:03,42.805,6.029,-0.019,0.002,-0.012,110.0,111.0,107.0,13.4,1505.3,326.1,-0.7,1.8,2470.486,13.31,0.019,276.0
2021-02-07T01:07:03,42.805,6.029,-0.007,0.033,0.017,110.0,113.0,105.0,13.4,1505.3,324.5,-0.7,1.8,2470.497,13.32,0.033,348.0
2021-02-07T01:10:03,42.805,6.029,-0.039,0.022,0.015,109.0,114.0,104.0,13.4,1505.3,324.8,-0.7,1.9,2470.493,13.32,0.044,299.4
2021-02-07T01:13:03,42.805,6.029,-0.028,0.017,-0.017,108.0,111.0,105.0,13.4,1505.3,324.8,-0.7,1.8,2470.44,13.33,0.032,301.3
2021-02-07T01:16:03,42.805,6.029,-0.02,-0.015,-0.032,109.0,111.0,104.0,13.3,1505.3,324.4,-0.7,1.8,2470.493,13.33,0.025,233.1
2021-02-07T01:19:03,42.805,6.029,-0.019,0.032,0.011,108.0,112.0,104.0,13.4,1505.3,324.3,-0.7,1.9,2470.481,13.33,0.037,329.3
2021-02-07T01:22:02,42.805,6.029,-0.024,0.014,-0.004,109.0,111.0,105.0,13.4,1505.3,325.0,-0.7,1.8,2470.527,13.33,0.027,300.3
2021-02-07T01:25:03,42.805,6.029,-0.026,0.008,-0.023,108.0,111.0,104.0,13.4,1505.3,324.5,-0.7,1.9,2470.47,13.33,0.027,287.1
2021-02-07T01:28:03,42.805,6.029,0.02,0.022,0.059,108.0,111.0,105.0,13.4,1505.3,324.8,-0.7,1.8,2470.472,13.33,0.029,42.3
2021-02-07T01:31:03,42.805,6.029,-0.024,-0.009,0.008,109.0,110.0,104.0,13.3,1505.4,324.5,-0.7,1.9,2470.493,13.34,0.025,249.4
2021-02-07T01:34:03,42.805,6.029,-0.038,0.009,0.015,109.0,112.0,105.0,13.4,1505.4,326.5,-0.7,1.8,2470.474,13.34,0.039,283.3
2021-02-07T01:37:03,42.805,6.029,-0.026,0.013,0.017,109.0,111.0,106.0,13.4,1505.4,325.7,-0.7,1.8,2470.419,13.34,0.029,296.6
2021-02-07T01:40:03,42.805,6.029,-0.01,0.007,-0.011,109.0,111.0,105.0,13.4,1505.4,324.3,-0.7,1.8,2470.49,13.34,0.012,305.0
2021-02-07T01:43:03,42.805,6.029,-0.022,0.03,-0.002,107.0,110.0,106.0,13.4,1505.4,327.7,-0.7,1.8,2470.46,13.34,0.037,323.7
2021-02-07T01:46:03,42.805,6.029,-0.02,0.012,-0.007,108.0,111.0,105.0,13.4,1505.4,327.4,-0.7,1.8,2470.49,13.34,0.023,301.0
2021-02-07T01:49:03,42.805,6.029,-0.027,-0.002,-0.033,110.0,111.0,107.0,13.4,1505.4,326.9,-0.7,1.8,2470.496,13.34,0.027,265.8
2021-02-07T01:52:03,42.805,6.029,-0.013,0.019,0.018,109.0,111.0,106.0,13.3,1505.4,328.2,-0.7,1.8,2470.475,13.34,0.023,325.6
2021-02-07T01:55:03,42.805,6.029,-0.034,-0.001,-0.006,109.0,112.0,107.0,13.3,1505.4,323.7,-0.7,1.8,2470.474,13.34,0.034,268.3
2021-02-07T01:58:03,42.805,6.029,-0.014,0.018,0.002,110.0,111.0,106.0,13.4,1505.4,326.1,-0.7,1.8,2470.457,13.34,0.022,322.1
2021-02-07T02:01:03,42.805,6.029,-0.012,0.003,-0.01,110.0,110.0,104.0,13.3,1505.4,326.1,-0.7,1.8,2470.484,13.34,0.012,284.0
2021-02-07T02:04:03,42.805,6.029,-0.029,0.0,-0.033,109.0,111.0,106.0,13.4,1505.4,324.6,-0.7,1.8,2470.501,13.34,0.028,270.0
2021-02-07T02:07:03,42.805,6.029,0.001,0.009,-0.003,109.0,111.0,105.0,13.4,1505.4,327.0,-0.7,1.8,2470.479,13.34,0.009,6.3
2021-02-07T02:10:03,42.805,6.029,-0.018,0.007,-0.006,113.0,111.0,105.0,13.4,1505.4,325.7,-0.7,1.8,2470.505,13.34,0.019,291.2
2021-02-07T02:13:03,42.805,6.029,-0.014,0.019,-0.026,111.0,111.0,106.0,13.3,1505.4,326.9,-0.7,1.8,2470.493,13.34,0.023,323.6
2021-02-07T02:16:03,42.805,6.029,-0.026,0.014,-0.058,109.0,112.0,106.0,13.4,1505.4,326.8,-0.7,1.8,2470.457,13.34,0.029,298.3
2021-02-07T02:19:03,42.805,6.029,-0.008,0.0,0.003,109.0,114.0,106.0,13.3,1505.4,328.0,-0.7,1.8,2470.513,13.34,0.008,270.0
2021-02-07T02:22:03,42.805,6.029,-0.007,-0.006,-0.018,113.0,112.0,108.0,13.4,1505.4,328.2,-0.7,1.8,2470.467,13.34,0.009,229.4
2021-02-07T02:25:03,42.805,6.029,-0.009,0.006,0.0,110.0,111.0,106.0,13.4,1505.4,327.1,-0.7,1.8,2470.487,13.34,0.01,303.7
2021-02-07T02:28:03,42.805,6.029,-0.005,-0.004,0.002,109.0,112.0,107.0,13.4,1505.4,327.9,-0.7,1.8,2470.441,13.34,0.006,231.3
2021-02-07T02:31:03,42.805,6.029,-0.025,0.009,-0.002,112.0,113.0,105.0,13.3,1505.4,327.3,-0.7,1.8,2470.475,13.34,0.026,289.8
2021-02-07T02:34:03,42.805,6.029,-0.013,0.003,-0.004,110.0,111.0,106.0,13.3,1505.4,324.2,-0.7,1.8,2470.507,13.34,0.013,283.0
2021-02-07T02:37:03,42.805,6.029,-0.006,-0.002,0.021,110.0,111.0,107.0,13.4,1505.4,326.7,-0.7,1.8,2470.469,13.34,0.006,251.6
2021-02-07T02:40:03,42.805,6.029,-0.009,0.02,0.002,110.0,112.0,107.0,13.3,1505.4,323.0,-0.7,1.8,2470.49,13.34,0.021,335.8
2021-02-07T02:43:03,42.805,6.029,-0.025,0.002,0.0,111.0,112.0,106.0,13.3,1505.4,325.6,-0.7,1.8,2470.469,13.34,0.025,274.6
2021-02-07T02:46:03,42.805,6.029,-0.036,-0.003,-0.019,110.0,113.0,106.0,13.4,1505.4,323.6,-0.7,1.8,2470.472,13.34,0.036,265.2
2021-02-07T02:49:03,42.805,6.029,-0.025,-0.019,-0.038,112.0,113.0,108.0,13.4,1505.4,323.6,-0.7,1.8,2470.48,13.34,0.031,232.8
2021-02-07T02:52:03,42.805,6.029,-0.033,-0.004,-0.004,112.0,114.0,106.0,13.3,1505.4,327.0,-0.7,1.8,2470.511,13.34,0.033,263.1
2021-02-07T02:55:03,42.805,6.029,-0.03,-0.005,-0.017,111.0,113.0,105.0,13.4,1505.4,326.4,-0.7,1.8,2470.525,13.34,0.03,260.5
2021-02-07T02:58:03,42.805,6.029,-0.004,-0.009,0.017,112.0,112.0,108.0,13.3,1505.4,327.7,-0.7,1.8,2470.498,13.34,0.009,204.0
2021-02-07T03:04:03,42.805,6.029,0.007,0.0,0.017,111.0,113.0,108.0,13.4,1505.3,325.0,-0.8,1.8,2470.524,13.32,0.007,90.0
2021-02-07T03:07:03,42.805,6.029,-0.008,0.005,0.002,112.0,113.0,107.0,13.4,1505.3,325.9,-0.7,1.8,2470.515,13.33,0.009,302.0
2021-02-07T03:10:03,42.805,6.029,-0.024,0.016,-0.023,113.0,114.0,107.0,13.4,1505.3,323.2,-0.7,1.9,2470.506,13.33,0.028,303.7
2021-02-07T03:13:03,42.805,6.029,-0.028,-0.001,-0.01,112.0,114.0,107.0,13.4,1505.3,325.0,-0.7,1.8,2470.511,13.33,0.028,268.0
2021-02-07T03:16:03,42.805,6.029,-0.029,0.027,0.002,113.0,113.0,107.0,13.4,1505.4,327.2,-0.7,1.8,2470.541,13.34,0.039,313.0
2021-02-07T03:19:03,42.805,6.029,-0.012,0.005,0.011,112.0,113.0,108.0,13.4,1505.4,323.9,-0.7,1.8,2470.486,13.34,0.013,292.6
2021-02-07T03:22:03,42.805,6.029,-0.017,0.009,0.008,112.0,113.0,108.0,13.4,1505.4,323.5,-0.7,1.8,2470.489,13.34,0.019,297.9
2021-02-07T03:25:03,42.805,6.029,-0.027,0.034,-0.013,112.0,114.0,108.0,13.4,1505.4,324.9,-0.7,1.8,2470.515,13.34,0.043,321.5
2021-02-07T03:28:03,42.805,6.029,-0.028,0.019,-0.026,114.0,113.0,108.0,13.4,1505.4,326.4,-0.7,1.8,2470.532,13.34,0.033,304.2
2021-02-07T03:31:03,42.805,6.029,-0.026,-0.009,-0.003,113.0,115.0,108.0,13.4,1505.4,325.9,-0.7,1.8,2470.545,13.34,0.027,250.9
2021-02-07T03:34:03,42.805,6.029,-0.004,-0.003,-0.004,113.0,115.0,109.0,13.3,1505.4,326.3,-0.7,1.8,2470.551,13.34,0.005,233.1
2021-02-07T03:37:03,42.805,6.029,-0.013,-0.003,0.002,112.0,115.0,109.0,13.3,1505.4,326.7,-0.7,1.8,2470.478,13.34,0.013,257.0
2021-02-07T03:40:03,42.805,6.029,-0.021,0.007,-0.015,113.0,114.0,107.0,13.4,1505.4,323.5,-0.7,1.8,2470.509,13.34,0.022,288.4
2021-02-07T03:43:03,42.805,6.029,-0.016,0.007,-0.002,112.0,113.0,108.0,13.4,1505.4,324.7,-0.7,1.8,2470.523,13.34,0.017,293.6
2021-02-07T03:46:03,42.805,6.029,-0.009,0.007,0.006,113.0,114.0,109.0,13.4,1505.4,323.5,-0.7,1.8,2470.53,13.34,0.011,307.9
2021-02-07T03:49:03,42.805,6.029,-0.03,0.016,0.01,113.0,115.0,108.0,13.3,1505.4,326.9,-0.7,1.8,2470.508,13.34,0.034,298.1
2021-02-07T03:52:03,42.805,6.029,0.0,0.008,0.0,114.0,115.0,109.0,13.3,1505.4,325.9,-0.7,1.8,2470.528,13.34,0.008,0.0
2021-02-07T03:55:03,42.805,6.029,-0.023,0.012,0.015,114.0,114.0,108.0,13.3,1505.4,324.6,-0.7,1.8,2470.507,13.34,0.025,297.6
2021-02-07T03:58:03,42.805,6.029,-0.016,0.023,-0.021,113.0,115.0,109.0,13.4,1505.4,326.8,-0.7,1.8,2470.573,13.34,0.028,325.2
2021-02-07T04:04:03,42.805,6.029,-0.039,0.009,-0.022,113.0,113.0,108.0,13.4,1505.3,325.0,-0.7,1.8,2470.559,13.32,0.04,283.0
2021-02-07T04:07:03,42.805,6.029,0.017,0.017,0.021,111.0,114.0,107.0,13.3,1505.3,322.8,-0.7,1.9,2470.536,13.33,0.024,45.0
2021-02-07T04:10:03,42.805,6.029,-0.039,0.006,-0.041,114.0,114.0,108.0,13.4,1505.3,323.8,-0.7,1.9,2470.52,13.33,0.039,278.7
2021-02-07T04:13:03,42.805,6.029,0.004,0.001,0.01,112.0,114.0,108.0,13.4,1505.4,326.5,-0.7,1.8,2470.559,13.34,0.004,76.0
2021-02-07T04:16:03,42.805,6.029,-0.027,-0.012,-0.019,112.0,113.0,109.0,13.4,1505.4,324.6,-0.7,1.8,2470.531,13.34,0.029,246.0
2021-02-07T04:19:03,42.805,6.029,-0.006,-0.001,0.0,115.0,114.0,108.0,13.4,1505.4,324.4,-0.7,1.8,2470.499,13.34,0.006,260.5
2021-02-07T04:22:03,42.805,6.029,-0.016,-0.004,-0.038,112.0,114.0,109.0,13.4,1505.4,327.6,-0.7,1.8,2470.552,13.34,0.016,256.0
2021-02-07T04:25:03,42.805,6.029,-0.023,0.011,-0.039,113.0,113.0,108.0,13.4,1505.4,328.0,-0.7,1.8,2470.523,13.34,0.025,295.6
2021-02-07T04:28:03,42.805,6.029,-0.016,0.002,-0.011,113.0,115.0,109.0,13.4,1505.4,327.5,-0.7,1.8,2470.516,13.34,0.016,277.1
2021-02-07T04:31:03,42.805,6.029,-0.01,-0.002,0.018,113.0,115.0,108.0,13.4,1505.4,327.8,-0.7,1.8,2470.496,13.34,0.01,258.7
2021-02-07T04:34:03,42.805,6.029,-0.013,0.004,-0.026,112.0,115.0,110.0,13.4,1505.4,327.2,-0.7,1.8,2470.454,13.34,0.013,287.1
2021-02-07T04:37:03,42.805,6.029,-0.022,0.017,-0.033,113.0,113.0,109.0,13.3,1505.4,327.0,-0.7,1.8,2470.536,13.34,0.027,307.7
2021-02-07T04:40:03,42.805,6.029,-0.015,0.009,0.006,113.0,113.0,107.0,13.4,1505.4,324.8,-0.6,1.8,2470.533,13.34,0.017,301.0
2021-02-07T04:43:03,42.805,6.029,-0.005,0.011,0.002,112.0,115.0,108.0,13.4,1505.4,324.3,-0.7,1.8,2470.549,13.35,0.012,335.6
2021-02-07T04:46:03,42.805,6.029,-0.026,0.01,-0.05,111.0,114.0,108.0,13.4,1505.4,325.9,-0.7,1.8,2470.506,13.35,0.027,291.0
2021-02-07T04:49:03,42.805,6.029,-0.019,-0.007,-0.012,113.0,115.0,108.0,13.4,1505.4,324.8,-0.7,1.8,2470.528,13.35,0.02,249.8
2021-02-07T04:52:03,42.805,6.029,-0.028,-0.012,0.015,112.0,113.0,108.0,13.4,1505.4,326.1,-0.7,1.8,2470.5,13.35,0.03,246.8
2021-02-07T04:55:03,42.805,6.029,-0.01,0.009,-0.012,113.0,113.0,109.0,13.4,1505.4,324.2,-0.7,1.8,2470.487,13.34,0.013,312.0
2021-02-07T04:58:03,42.805,6.029,0.001,0.008,-0.032,113.0,113.0,108.0,13.3,1505.4,323.2,-0.7,1.8,2470.491,13.34,0.008,7.1
2021-02-07T05:04:03,42.805,6.029,-0.018,0.01,-0.019,112.0,114.0,108.0,13.4,1505.3,326.6,-0.7,1.8,2470.56,13.33,0.02,299.1
2021-02-07T05:07:03,42.805,6.029,-0.024,-0.002,-0.021,114.0,113.0,107.0,13.4,1505.3,323.6,-0.7,1.8,2470.548,13.33,0.024,265.2
2021-02-07T05:10:03,42.805,6.029,-0.01,0.0,-0.003,114.0,114.0,108.0,13.3,1505.3,326.9,-0.7,1.8,2470.57,13.33,0.01,270.0
2021-02-07T05:13:03,42.805,6.029,-0.008,-0.01,-0.029,113.0,114.0,108.0,13.3,1505.4,326.9,-0.7,1.8,2470.535,13.34,0.012,218.7
2021-02-07T05:16:03,42.805,6.029,-0.018,0.007,-0.003,113.0,113.0,108.0,13.4,1505.4,326.7,-0.7,1.8,2470.564,13.34,0.019,291.2
2021-02-07T05:19:03,42.805,6.029,-0.012,-0.006,0.001,112.0,113.0,108.0,13.4,1505.4,324.2,-0.7,1.8,2470.569,13.34,0.013,243.4
2021-02-07T05:22:03,42.805,6.029,-0.018,0.017,-0.026,112.0,113.0,109.0,13.4,1505.4,324.6,-0.7,1.8,2470.526,13.34,0.024,313.4
2021-02-07T05:25:03,42.805,6.029,-0.029,-0.003,-0.013,113.0,114.0,109.0,13.3,1505.4,325.4,-0.7,1.8,2470.515,13.34,0.029,264.1
2021-02-07T05:28:03,42.805,6.029,-0.032,0.025,-0.03,113.0,112.0,108.0,13.3,1505.4,326.5,-0.7,1.8,2470.557,13.34,0.04,308.0
2021-02-07T05:31:03,42.805,6.029,-0.023,-0.005,-0.006,112.0,114.0,109.0,13.3,1505.4,325.4,-0.7,1.9,2470.538,13.34,0.023,257.7
2021-02-07T05:34:03,42.805,6.029,-0.027,0.015,-0.019,114.0,114.0,109.0,13.4,1505.4,322.6,-0.7,1.8,2470.535,13.34,0.03,299.1
2021-02-07T05:37:03,42.805,6.029,-0.008,-0.011,-0.015,114.0,115.0,109.0,13.3,1505.4,327.1,-0.7,1.9,2470.553,13.34,0.013,216.0
2021-02-07T05:40:03,42.805,6.029,-0.016,0.003,-0.019,114.0,114.0,108.0,13.4,1505.4,326.5,-0.7,1.8,2470.503,13.34,0.016,280.6
2021-02-07T05:43:03,42.805,6.029,-0.026,0.023,-0.015,114.0,114.0,108.0,13.4,1505.4,325.3,-0.7,1.8,2470.536,13.34,0.034,311.5
2021-02-07T05:46:03,42.805,6.029,-0.011,-0.016,0.002,112.0,113.0,107.0,13.4,1505.4,325.0,-0.7,1.8,2470.481,13.34,0.019,214.5
2021-02-07T05:49:03,42.805,6.029,-0.016,-0.013,0.03,113.0,115.0,108.0,13.4,1505.4,326.8,-0.7,1.8,2470.538,13.35,0.02,230.9
2021-02-07T05:52:03,42.805,6.029,-0.02,0.005,0.0,113.0,115.0,109.0,13.4,1505.4,326.0,-0.7,1.8,2470.514,13.34,0.02,284.0
2021-02-07T05:55:03,42.805,6.029,-0.022,-0.009,-0.006,111.0,113.0,109.0,13.4,1505.4,324.5,-0.7,1.9,2470.509,13.34,0.023,247.8
2021-02-07T05:58:03,42.805,6.029,-0.003,0.002,0.009,112.0,114.0,109.0,13.3,1505.4,324.1,-0.7,1.8,2470.52,13.34,0.003,303.7
2021-02-07T06:04:03,42.805,6.029,-0.011,-0.004,-0.015,114.0,114.0,108.0,13.4,1505.3,324.4,-0.8,1.8,2470.538,13.32,0.011,250.0
2021-02-07T06:07:03,42.805,6.029,-0.025,0.004,0.008,112.0,113.0,107.0,13.4,1505.3,323.9,-0.8,1.8,2470.528,13.33,0.025,279.1
2021-02-07T06:10:03,42.805,6.029,-0.014,0.013,-0.021,113.0,114.0,109.0,13.4,1505.3,325.3,-0.7,1.8,2470.537,13.33,0.019,312.9
2021-02-07T06:13:03,42.805,6.029,-0.027,0.006,-0.037,112.0,113.0,109.0,13.4,1505.3,328.0,-0.7,1.8,2470.518,13.33,0.027,282.5
2021-02-07T06:16:03,42.805,6.029,-0.014,-0.003,0.002,111.0,113.0,106.0,13.3,1505.3,325.0,-0.7,1.8,2470.503,13.33,0.014,257.9
2021-02-07T06:19:03,42.805,6.029,-0.018,0.029,0.005,113.0,113.0,108.0,13.4,1505.3,326.2,-0.7,1.9,2470.509,13.33,0.034,328.2
2021-02-07T06:22:03,42.805,6.029,-0.034,-0.003,0.0,113.0,115.0,107.0,13.4,1505.3,324.2,-0.7,1.8,2470.556,13.33,0.034,265.0
2021-02-07T06:25:03,42.805,6.029,-0.026,0.0,-0.014,113.0,113.0,107.0,13.4,1505.3,326.2,-0.7,1.8,2470.537,13.33,0.026,270.0
2021-02-07T06:28:03,42.805,6.029,-0.013,0.002,-0.005,113.0,113.0,109.0,13.4,1505.3,323.4,-0.7,1.8,2470.482,13.33,0.013,278.7
2021-02-07T06:31:03,42.805,6.029,-0.025,0.005,-0.014,112.0,115.0,108.0,13.3,1505.3,327.2,-0.7,1.8,2470.543,13.33,0.025,281.3
2021-02-07T06:34:03,42.805,6.029,-0.032,-0.019,-0.017,112.0,113.0,107.0,13.4,1505.4,327.2,-0.7,1.8,2470.534,13.34,0.037,239.3
2021-02-07T06:37:03,42.805,6.029,-0.011,0.01,0.011,113.0,113.0,106.0,13.3,1505.4,325.1,-0.7,1.8,2470.504,13.34,0.014,312.3
2021-02-07T06:40:03,42.805,6.029,-0.043,0.0,-0.041,112.0,112.0,108.0,13.3,1505.4,325.8,-0.7,1.8,2470.511,13.34,0.043,270.0
2021-02-07T06:43:03,42.805,6.029,-0.022,0.021,-0.014,112.0,113.0,109.0,13.3,1505.3,324.4,-0.7,1.8,2470.523,13.33,0.03,313.7
2021-02-07T06:46:03,42.805,6.029,-0.032,0.017,0.004,111.0,114.0,107.0,13.3,1505.3,327.9,-0.7,1.8,2470.492,13.33,0.036,298.0
2021-02-07T06:49:03,42.805,6.029,-0.023,0.013,0.006,111.0,113.0,107.0,13.4,1505.3,323.7,-0.7,1.8,2470.496,13.33,0.026,299.5
2021-02-07T06:52:03,42.805,6.029,-0.027,0.005,-0.014,112.0,113.0,107.0,13.4,1505.3,326.6,-0.7,1.8,2470.511,13.33,0.027,280.5
2021-02-07T06:55:03,42.805,6.029,-0.028,-0.013,-0.015,112.0,112.0,108.0,13.4,1505.3,324.9,-0.7,1.9,2470.474,13.33,0.03,245.1
2021-02-07T06:58:03,42.805,6.029,-0.021,0.025,-0.008,112.0,115.0,108.0,13.4,1505.3,326.1,-0.7,1.8,2470.471,13.33,0.032,320.0
2021-02-07T07:04:03,42.805,6.029,-0.018,0.017,-0.018,112.0,114.0,107.0,13.3,1505.3,323.3,-0.7,1.8,2470.542,13.31,0.024,313.4
2021-02-07T07:07:03,42.805,6.029,-0.026,0.0,-0.004,112.0,114.0,107.0,13.3,1505.3,324.8,-0.7,1.8,2470.49,13.32,0.026,270.0
2021-02-07T07:10:03,42.805,6.029,-0.007,0.011,0.005,111.0,113.0,107.0,13.3,1505.3,327.6,-0.7,1.8,2470.537,13.33,0.013,327.5
2021-02-07T07:13:03,42.805,6.029,-0.033,0.009,-0.019,111.0,114.0,107.0,13.3,1505.3,326.8,-0.7,1.8,2470.542,13.33,0.034,285.3
2021-02-07T07:16:03,42.805,6.029,-0.013,0.004,0.005,113.0,113.0,107.0,13.4,1505.3,327.5,-0.7,1.8,2470.474,13.33,0.013,287.1
2021-02-07T07:19:03,42.805,6.029,-0.014,0.008,0.002,112.0,113.0,108.0,13.4,1505.3,324.8,-0.7,1.8,2470.509,13.33,0.016,299.7
2021-02-07T07:22:03,42.805,6.029,-0.011,0.0,0.002,111.0,112.0,108.0,13.3,1505.3,325.3,-0.7,1.8,2470.517,13.33,0.011,270.0
2021-02-07T07:25:03,42.805,6.029,-0.03,-0.001,-0.029,112.0,114.0,108.0,13.4,1505.3,326.5,-0.7,1.8,2470.46,13.33,0.03,268.1
2021-02-07T07:28:03,42.805,6.029,-0.05,-0.002,0.007,113.0,113.0,108.0,13.4,1505.3,325.0,-0.7,1.8,2470.491,13.33,0.05,267.7
2021-02-07T07:31:03,42.805,6.029,0.001,0.018,0.016,112.0,112.0,109.0,13.4,1505.3,324.6,-0.7,1.8,2470.481,13.33,0.018,3.2
2021-02-07T07:34:03,42.805,6.029,-0.005,0.033,0.009,112.0,113.0,109.0,13.3,1505.3,325.5,-0.7,1.8,2470.477,13.33,0.033,351.4
2021-02-07T07:37:03,42.805,6.029,-0.028,0.021,0.013,111.0,113.0,107.0,13.4,1505.3,327.8,-0.7,1.8,2470.5,13.33,0.035,306.9
2021-02-07T07:40:03,42.805,6.029,-0.03,0.011,0.005,112.0,112.0,107.0,13.4,1505.3,325.8,-0.7,1.8,2470.474,13.33,0.031,290.1
2021-02-07T07:43:03,42.805,6.029,-0.02,0.009,-0.013,111.0,113.0,107.0,13.4,1505.3,327.9,-0.7,1.8,2470.468,13.33,0.021,294.2
2021-02-07T07:46:03,42.805,6.029,-0.042,-0.012,0.006,112.0,113.0,107.0,13.4,1505.3,323.8,-0.7,1.8,2470.462,13.33,0.043,254.1
2021-02-07T07:49:03,42.805,6.029,-0.005,0.007,0.013,112.0,113.0,108.0,13.3,1505.3,326.7,-0.7,1.8,2470.508,13.33,0.008,324.5
2021-02-07T07:52:03,42.805,6.029,-0.023,0.021,0.027,112.0,112.0,108.0,13.4,1505.3,326.3,-0.7,1.8,2470.485,13.33,0.031,312.4
2021-02-07T07:55:03,42.805,6.029,-0.014,0.005,0.008,113.0,112.0,108.0,13.3,1505.3,326.9,-0.7,1.8,2470.468,13.33,0.014,289.6
2021-02-07T07:58:03,42.805,6.029,-0.021,0.0,0.007,112.0,113.0,107.0,13.4,1505.3,326.6,-0.7,1.8,2470.427,13.33,0.021,270.0
2021-02-07T08:04:03,42.805,6.029,-0.022,0.008,-0.005,111.0,112.0,107.0,13.4,1505.3,326.1,-0.7,1.8,2470.504,13.31,0.023,290.0
2021-02-07T08:07:03,42.805,6.029,-0.038,0.01,-0.036,112.0,112.0,107.0,13.3,1505.3,326.9,-0.7,1.8,2470.473,13.32,0.039,284.7
2021-02-07T08:10:03,42.805,6.029,-0.009,-0.004,0.012,111.0,112.0,108.0,13.3,1505.3,325.2,-0.7,1.8,2470.472,13.32,0.009,246.0
2021-02-07T08:13:03,42.805,6.029,-0.016,0.023,0.02,111.0,114.0,107.0,13.4,1505.3,326.8,-0.7,1.8,2470.493,13.33,0.028,325.2
2021-02-07T08:16:03,42.805,6.029,0.0,-0.016,0.011,113.0,113.0,106.0,13.4,1505.3,326.0,-0.7,1.8,2470.479,13.33,0.016,180.0
2021-02-07T08:19:03,42.805,6.029,-0.006,-0.006,0.023,111.0,114.0,108.0,13.4,1505.3,325.6,-0.7,1.8,2470.481,13.33,0.008,225.0
2021-02-07T08:22:03,42.805,6.029,-0.018,-0.001,0.025,113.0,113.0,107.0,13.4,1505.3,325.6,-0.7,1.8,2470.491,13.33,0.018,266.8
2021-02-07T08:25:03,42.805,6.029,-0.004,-0.01,0.003,112.0,112.0,107.0,13.4,1505.3,326.7,-0.7,1.8,2470.457,13.33,0.01,201.8
2021-02-07T08:28:03,42.805,6.029,-0.049,0.032,0.007,111.0,112.0,107.0,13.3,1505.3,323.1,-0.7,1.8,2470.464,13.33,0.058,303.2
2021-02-07T08:31:03,42.805,6.029,-0.025,-0.012,0.027,112.0,113.0,106.0,13.4,1505.3,323.2,-0.7,1.8,2470.482,13.33,0.027,244.4
2021-02-07T08:34:03,42.805,6.029,-0.02,0.012,0.016,110.0,114.0,107.0,13.4,1505.3,323.6,-0.7,1.8,2470.468,13.33,0.023,301.0
2021-02-07T08:37:03,42.805,6.029,-0.022,0.009,-0.011,111.0,111.0,110.0,13.4,1505.3,327.0,-0.7,1.8,2470.461,13.33,0.023,292.2
2021-02-07T08:40:03,42.805,6.029,0.0,0.009,-0.021,112.0,113.0,107.0,13.4,1505.3,327.6,-0.7,1.8,2470.47,13.33,0.009,0.0
2021-02-07T08:43:03,42.805,6.029,-0.013,0.002,-0.013,112.0,112.0,107.0,13.3,1505.3,325.6,-0.7,1.8,2470.451,13.33,0.013,278.7
2021-02-07T08:46:03,42.805,6.029,-0.026,0.017,0.018,111.0,113.0,107.0,13.4,1505.3,325.4,-0.7,1.8,2470.466,13.33,0.031,303.2
2021-02-07T08:49:03,42.805,6.029,-0.028,0.01,-0.045,111.0,113.0,106.0,13.4,1505.3,322.9,-0.7,1.8,2470.427,13.33,0.029,289.6
2021-02-07T08:52:03,42.805,6.029,-0.032,0.018,-0.003,112.0,112.0,106.0,13.3,1505.3,326.4,-0.7,1.8,2470.448,13.33,0.036,299.4
2021-02-07T08:55:03,42.805,6.029,-0.014,0.022,0.021,113.0,113.0,107.0,13.3,1505.3,327.8,-0.7,1.8,2470.477,13.33,0.026,327.5
2021-02-07T08:58:03,42.805,6.029,-0.035,0.006,0.009,112.0,114.0,107.0,13.4,1505.3,324.1,-0.7,1.8,2470.474,13.33,0.035,279.7
2021-02-07T09:04:03,42.805,6.029,-0.028,0.004,0.0,111.0,114.0,107.0,13.3,1505.3,326.4,-0.8,1.8,2470.482,13.31,0.028,278.1
2021-02-07T09:07:03,42.805,6.029,-0.03,0.007,-0.032,112.0,114.0,109.0,13.3,1505.3,326.1,-0.7,1.8,2470.471,13.32,0.03,283.1
2021-02-07T09:10:03,42.805,6.029,-0.016,0.009,0.019,113.0,113.0,108.0,13.3,1505.3,324.2,-0.7,1.8,2470.485,13.32,0.018,299.4
2021-02-07T09:13:03,42.805,6.029,-0.033,0.004,-0.019,111.0,112.0,107.0,13.3,1505.3,327.3,-0.7,1.8,2470.444,13.32,0.033,276.9
2021-02-07T09:16:03,42.805,6.029,-0.02,0.023,0.024,113.0,113.0,108.0,13.3,1505.3,326.3,-0.7,1.8,2470.414,13.33,0.03,319.0
2021-02-07T09:19:03,42.805,6.029,-0.007,0.012,0.032,112.0,112.0,108.0,13.3,1505.3,327.2,-0.7,1.8,2470.434,13.33,0.013,329.7
2021-02-07T09:22:03,42.805,6.029,-0.036,0.015,0.007,113.0,114.0,107.0,13.4,1505.3,327.5,-0.7,1.8,2470.491,13.33,0.039,292.6
2021-02-07T09:25:03,42.805,6.029,-0.063,0.0,-0.034,112.0,113.0,107.0,13.4,1505.3,325.6,-0.7,1.8,2470.418,13.33,0.062,270.0
2021-02-07T09:28:03,42.805,6.029,-0.04,0.031,-0.01,111.0,114.0,105.0,13.4,1505.3,324.7,-0.7,1.8,2470.433,13.33,0.05,307.8
2021-02-07T09:31:03,42.805,6.029,-0.032,0.025,0.007,110.0,115.0,107.0,13.3,1505.3,328.0,-0.7,1.8,2470.433,13.33,0.04,308.0
2021-02-07T09:34:03,42.805,6.029,-0.02,0.016,-0.005,111.0,114.0,107.0,13.3,1505.3,328.2,-0.7,1.8,2470.439,13.33,0.025,308.7
2021-02-07T09:37:03,42.805,6.029,-0.028,0.01,-0.008,112.0,115.0,107.0,13.4,1505.3,326.4,-0.7,1.9,2470.441,13.33,0.029,289.6
2021-02-07T09:40:03,42.805,6.029,-0.025,0.004,0.002,113.0,113.0,108.0,13.4,1505.3,325.3,-0.7,1.8,2470.45,13.33,0.025,279.1
2021-02-07T09:43:03,42.805,6.029,-0.044,0.003,0.01,111.0,113.0,107.0,13.3,1505.3,324.4,-0.7,1.8,2470.438,13.33,0.044,273.9
2021-02-07T09:46:03,42.805,6.029,-0.024,0.008,0.015,111.0,114.0,107.0,13.4,1505.3,325.1,-0.7,1.8,2470.447,13.33,0.025,288.4
2021-02-07T09:52:03,42.805,6.029,-0.039,0.015,-0.037,110.0,114.0,106.0,13.3,1505.3,328.1,-0.7,1.8,2470.471,13.31,0.041,291.0
2021-02-07T09:55:03,42.805,6.029,-0.027,0.01,-0.012,111.0,113.0,108.0,13.4,1505.3,328.1,-0.7,1.8,2470.428,13.32,0.028,290.3